Regional Weather Roundup
Issued by NWS

Home | Current Version | Previous Version | Text Only | Print | Product List | Glossary Off
Versions: 1 2 3 4 5 6 7 8 9 10 11 12 13 14 15 16 17 18 19 20 21 22 23 24 25 26 27 28 29 30 31 32 33 34 35 36 37 38 39 40 41 42 43 44 45 46 47 48 49 50

000
ASUS43 KLOT 231008
RWRIL

ILLINOIS REGIONAL WEATHER ROUNDUP
NATIONAL WEATHER SERVICE CHICAGO/ROMEOVILLE IL
500 AM CDT SUN APR 23 2017

NOTE: "FAIR" INDICATES FEW OR NO CLOUDS BELOW 12,000 FEET WITH NO
SIGNIFICANT WEATHER AND/OR OBSTRUCTIONS TO VISIBILITY.

* THESE STATIONS ARE NOT UNDER NWS QUALITY CONTROL. THEY ALSO MAY NOT
  REPORT WEATHER SUCH AS PRECIPITATION OR FOG.

ILZ001-002-007-009-015-016-024-231100-
NORTHWEST ILLINOIS

CITY           SKY/WX    TMP DP  RH WIND       PRES   REMARKS
MOLINE         CLEAR     36  33  89 CALM      30.15S
STERLING*      CLEAR     38  35  89 CALM      30.16R
SAVANNA*       CLEAR     36  36  99 NE3       30.16R
$$

ILZ003-004-008-010-011-017-018-231100-
NORTH CENTRAL ILLINOIS

CITY           SKY/WX    TMP DP  RH WIND       PRES   REMARKS
ROCKFORD       CLEAR     37  30  75 CALM      30.16S
FREEPORT*      CLEAR     34  28  79 CALM      30.17R
ROCHELLE*      CLEAR     35  30  83 CALM      30.15R
DE KALB*       CLEAR     38  28  65 NW6       30.15R WCI  34
PERU*          CLEAR     38  27  64 NE3       30.15R
$$

ILZ005-006-012>014-019>023-231100-
NORTHEAST ILLINOIS

CITY           SKY/WX    TMP DP  RH WIND       PRES   REMARKS
CHICAGO-OHARE  CLEAR     39  29  67 CALM      30.13R
CHICAGO-MIDWAY CLEAR     40  31  70 NW5       30.13S
AURORA         CLEAR     35  30  82 CALM      30.14R
LANSING*       CLEAR     33  32  99 CALM      30.13S
JOLIET*        CLEAR     36  33  87 CALM      30.14R
WAUKEGAN       CLEAR     39  31  72 W5        30.12S
DUPAGE AIRPORT CLEAR     34  30  85 N3        30.13R
KANKAKEE*      CLEAR     35  26  70 CALM      30.13S
WHEELING       CLEAR     37  33  85 NW3       30.14S
MORRIS*        CLEAR     40  27  59 CALM      30.13S
ROMEOVILLE*    CLEAR     39  34  82 CALM      30.13R
NORTHERLY ISL    N/A     45  33  63 CALM        N/A
$$

LMZ740>746-231100-
SOUTHERN LAKE MICHIGAN

STATION/POSITION SKY/WX   TEMP    WIND        PRES    VSBY  WAVE
                          AIR SEA DIR/SP/G                  HT/PER
                          (F)     (DEG/KT/KT) (MB)    (MI)  (FT/S)
HARRISON CRIB              49     300/  4/  5   N/A
BURNHAM HARBOR             45        CALM       N/A
CALUMET HARBOR             43     260/  1/  2 1019.6R
BURNS HARBOR               46      70/  2/  2 1020.7R
MICHIGAN CITY              43     110/  1/  1   N/A
ST. JOSEPH                 46 48  200/  2/  4 1021.0          1/ 4
$$

ILZ025>027-034>036-040-047-049-050-058-095>099-231100-
WEST-CENTRAL ILLINOIS

CITY           SKY/WX    TMP DP  RH WIND       PRES   REMARKS
QUINCY         CLEAR     39  29  67 N7        30.12S WCI  34
GALESBURG*     CLEAR     33  30  87 CALM      30.14R
MACOMB*        CLEAR     34  30  83 N5        30.16R WCI  30
JACKSONVILLE*  CLEAR     38  29  71 NE3       30.11S
PITTSFIELD*    CLEAR     38  31  74 N3        30.13S
$$

ILZ028>032-037-038-041>044-048-051>054-059>061-231100-
CENTRAL ILLINOIS

CITY           SKY/WX    TMP DP  RH WIND       PRES   REMARKS
PONTIAC        CLEAR     37  31  81 CALM      30.13S
BLOOMINGTON    CLEAR     36  26  67 NE8       30.13R WCI  30
DECATUR        CLEAR     36  30  79 N8        30.10R WCI  30
PEORIA         CLEAR     38  30  73 CALM      30.13R
LACON*         CLEAR     34  29  80 CALM      30.14R
LINCOLN*       CLEAR     39  29  68 CALM      30.12R
SPRINGFIELD    CLEAR     39  33  79 CALM      30.11R
TAYLORVILLE    CLEAR     36  29  76 N7        30.10R WCI  30
$$

ILZ033-039-045-046-055>057-062-063-231100-
EAST-CENTRAL ILLINOIS

CITY           SKY/WX    TMP DP  RH WIND       PRES   REMARKS
CHAMPAIGN      CLEAR     41  26  55 N8        30.10R
RANTOUL*       CLEAR     41  29  63 NE5       30.11R
MATTOON        CLEAR     34  30  85 N8        30.06F WCI  27
PARIS*         CLEAR     38  32  77 N7        30.08F WCI  33
$$

ILZ079-100>102-231100-
SOUTHWEST ILLINOIS

CITY           SKY/WX    TMP DP  RH WIND       PRES   REMARKS
ALTON          CLEAR     42  30  62 N5        30.08S
BELLEVILLE     CLEAR     43  33  69 N8        30.05S
CAHOKIA*       CLEAR     43  33  68 N7        30.07S
SPARTA*        CLEAR     42  36  79 N7        30.04S
$$

ILZ064>066-069>071-074>076-080>082-084>086-088>090-092>094-231100-
SOUTH-CENTRAL ILLINOIS

CITY           SKY/WX    TMP DP  RH WIND       PRES   REMARKS
CARBONDALE     CLOUDY    47  38  71 N10       29.99S
CAIRO*         CLOUDY    49  42  76 N9        29.95R
EFFINGHAM*     CLEAR     42  33  70 N5        30.06S
MARION         CLOUDY    48  37  66 N13       29.99S
MT. VERNON     PTCLDY    44  35  70 N8        30.02S
CENTRALIA*     CLEAR     42  37  79 N8        30.03S
SALEM*         CLEAR     43  34  71 N8        30.04S
METROPOLIS*    CLOUDY    50  41  70 N7        29.95R
$$

ILZ067-068-072-073-078-083-087-091-231100-
SOUTHEAST ILLINOIS

CITY           SKY/WX    TMP DP  RH WIND       PRES   REMARKS
LAWRENCEVILLE  PTCLDY    44  35  70 NE12      30.01F
FLORA*         CLOUDY    41  36  81 N7        30.03S
FAIRFIELD*     CLOUDY    44  37  76 N6        30.00S
HARRISBURG*    MOCLDY    48  38  66 N9G16     29.97F
ROBINSON*      CLEAR     41  35  77 NE10      30.04F
CARMI*         CLOUDY    47  37  68 N13       29.98S
$$

ABBREVIATIONS USED IN REMARKS
   TC - TEMPERATURE IN CELSIUS
  WCI - WIND CHILL INDEX
   HX - HEAT INDEX
  VSB - VISIBILITY
$$




USA.gov is the U.S. government's official web portal to all federal, state and local government web resources and services.